Findlay, OH

6:57 PM EST on November 18, 2019 (GMT -0500)
Findlay

Weather History for KFDY - July, 2019

Change the Weather History Date:

Friday, July 12, 2019

  Actual Average Record
Temperature  
Mean Temperature 76 °F -  
Max Temperature 84 °F 82 °F 96 °F (1952)
Min Temperature 68 °F 62 °F 50 °F (1974)
Cooling Degree Days 11    
Growing Degree Days 26 (Base 50)    
Moisture  
Dew Point 60 °F    
Average Humidity 60    
Maximum Humidity 76    
Minimum Humidity 36    
Precipitation  
Precipitation 0.00 in - - ()
Sea Level Pressure  
Sea Level Pressure 29.91 in    
Wind  
Wind Speed 7 mph (NW)    
Max Wind Speed 9 mph    
Max Gust Speed -    
Visibility 10 miles    
Events      
Averages and records for this station are not official NWS values.
T = Trace of Precipitation, MM = Missing Value Source: NWS Daily Summary

Daily Weather History Graph

Daily Weather History Graph

Search for Another Location

Airport or City:

Astronomy

Jul. 12, 2019 Rise Set
Actual Time 6:13 AM EDT 9:07 PM EDT
Civil Twilight 5:40 AM EDT 9:40 PM EDT
Nautical Twilight 4:58 AM EDT 10:21 PM EDT
Astronomical Twilight 4:10 AM EDT 11:09 PM EDT
Moon 5:24 PM EDT (7/12) 2:57 AM EDT (7/12)
Length of Visible Light 15h 59m
Length of Day
14h 54m
Waxing Gibbous, 82% of the Moon is Illuminated
Jul 12
Waxing Gibbous
Jul 16
Full
Jul 24
Last Quarter
Jul 31
New
Aug 7
First Quarter

Hourly Weather History & Observations

Time (EDT) Temp. Heat Index Dew Point Humidity Pressure Visibility Wind Dir Wind Speed Gust Speed Precip Events Conditions
12:53 AM 73.0 °F - 61.0 °F 66% 29.84 in 10.0 mi NW 9.2 mph - N/A   Clear
1:53 AM 72.0 °F - 61.0 °F 68% 29.85 in 10.0 mi NNW 6.9 mph - N/A   Scattered Clouds
2:01 AM 72.0 °F - 61.0 °F 68% 29.88 in 10.0 mi NNW 6.9 mph - N/A   Mostly Cloudy
2:53 AM 72.0 °F - 63.0 °F 73% 29.84 in 10.0 mi NNE 5.8 mph - N/A   Overcast
3:53 AM 72.0 °F - 64.0 °F 76% 29.86 in 10.0 mi NE 9.2 mph - N/A   Overcast
4:53 AM 72.0 °F - 63.0 °F 73% 29.87 in 10.0 mi NE 9.2 mph - N/A   Overcast
5:53 AM 71.1 °F - 62.1 °F 73% 29.87 in 10.0 mi NE 8.1 mph - N/A   Overcast
6:08 AM 70.0 °F - 61.0 °F 73% 29.91 in 10.0 mi NW 5.8 mph - N/A   Overcast
6:53 AM 68.0 °F - 60.1 °F 76% 29.90 in 10.0 mi NNW 8.1 mph - N/A   Mostly Cloudy
7:53 AM 68.0 °F - 59.0 °F 73% 29.91 in 10.0 mi North 9.2 mph - N/A   Clear
8:53 AM 69.1 °F - 60.1 °F 73% 29.92 in 10.0 mi North 6.9 mph - N/A   Scattered Clouds
9:10 AM 70.0 °F - 60.1 °F 71% 29.96 in 10.0 mi NNW 5.8 mph - N/A   Mostly Cloudy
9:41 AM 72.0 °F - 60.1 °F 66% 29.96 in 10.0 mi NNW 6.9 mph - N/A   Mostly Cloudy
9:53 AM 72.0 °F - 60.1 °F 66% 29.94 in 10.0 mi NNW 5.8 mph - N/A   Mostly Cloudy
10:17 AM 73.0 °F - 61.0 °F 66% 29.96 in 10.0 mi Variable 3.5 mph - N/A   Mostly Cloudy
10:26 AM 73.9 °F - 61.0 °F 64% 29.96 in 10.0 mi NNW 3.5 mph - N/A   Scattered Clouds
10:49 AM 73.4 °F - 60.8 °F 65% 29.96 in 10.0 mi Calm Calm - N/A   Mostly Cloudy
10:53 AM 75.0 °F - 62.1 °F 64% 29.93 in 10.0 mi NNW 5.8 mph - N/A   Scattered Clouds
11:41 AM 75.0 °F - 61.0 °F 62% 29.96 in 10.0 mi WNW 8.1 mph - N/A   Mostly Cloudy
11:51 AM 77.0 °F - 60.8 °F 57% 29.96 in 10.0 mi Variable 5.8 mph - N/A   Scattered Clouds
11:53 AM 77.0 °F - 61.0 °F 58% 29.94 in 10.0 mi NW 6.9 mph - N/A   Scattered Clouds
12:53 PM 79.0 °F - 61.0 °F 54% 29.93 in 10.0 mi Variable 3.5 mph - N/A   Scattered Clouds
1:53 PM 81.0 °F 81.6 °F 60.1 °F 49% 29.93 in 10.0 mi West 5.8 mph - N/A   Partly Cloudy
2:53 PM 82.9 °F 82.6 °F 57.9 °F 42% 29.92 in 10.0 mi Variable 3.5 mph - N/A   Clear
3:53 PM 82.9 °F 82.6 °F 57.9 °F 42% 29.91 in 10.0 mi Variable 5.8 mph - N/A   Clear
4:53 PM 84.9 °F 83.6 °F 55.0 °F 36% 29.90 in 10.0 mi NW 9.2 mph - N/A   Clear
5:53 PM 84.0 °F 83.0 °F 55.9 °F 38% 29.90 in 10.0 mi WSW 5.8 mph - N/A   Clear
6:53 PM 84.0 °F 82.9 °F 55.0 °F 37% 29.90 in 10.0 mi Variable 3.5 mph - N/A   Clear
7:53 PM 82.0 °F 81.4 °F 55.0 °F 39% 29.91 in 10.0 mi West 8.1 mph - N/A   Clear
8:53 PM 79.0 °F - 54.0 °F 42% 29.91 in 10.0 mi WSW 4.6 mph - N/A   Clear
9:53 PM 75.9 °F - 55.0 °F 48% 29.91 in 10.0 mi WSW 4.6 mph - N/A   Clear
10:53 PM 73.0 °F - 57.9 °F 59% 29.93 in 10.0 mi WSW 3.5 mph - N/A   Clear
11:53 PM 70.0 °F - 59.0 °F 68% 29.94 in 10.0 mi WSW 3.5 mph - N/A   Clear